| time (UTC) | temp F | wind direction | speed knots | gust knots | rain 1hr in | rain 24hr in | rain mn in | humidity % | barometer mb |
| 20260507150006 | 74 | 202 | 1.7 | 7.0 | 0.00 | 0.00 | 0.00 | 47 | 1002.7 |
| 20260507140006 | 74 | 197 | 2.6 | 6.1 | 0.00 | 0.00 | 0.00 | 50 | 1003.1 |
| 20260507130005 | 72 | 216 | 2.6 | 6.1 | 0.00 | 0.00 | 0.00 | 53 | 1003.6 |
| 20260507120006 | 70 | 193 | 2.6 | 6.1 | 0.00 | 0.00 | 0.00 | 56 | 1004.1 |
| 20260507110005 | 70 | 187 | 2.6 | 5.2 | 0.00 | 0.00 | 0.00 | 58 | 1004.2 |
| 20260507100005 | 67 | 176 | 3.5 | 9.6 | 0.00 | 0.00 | 0.00 | 69 | 1004.3 |
| 20260507090006 | 65 | 215 | 2.6 | 6.1 | 0.00 | 0.00 | 0.00 | 72 | 1004.3 |
| 20260507080005 | 63 | 173 | 1.7 | 3.5 | 0.00 | 0.00 | 0.00 | 77 | 1004.0 |
| 20260507070010 | 60 | 223 | 0.9 | 2.6 | 0.00 | 0.00 | 0.00 | 82 | 1003.8 |
| 20260507060006 | 57 | 208 | 0.9 | 2.6 | 0.00 | 0.00 | 0.00 | 88 | 1003.2 |
| 20260507050006 | 60 | 161 | 2.6 | 6.1 | 0.00 | 0.00 | 0.00 | 85 | 1002.1 |
| 20260507040005 | 61 | 185 | 0.0 | 0.9 | 0.00 | 0.00 | 0.00 | 81 | 1002.4 |
| 20260507030005 | 60 | 0.0 | 0.0 | 0.00 | 0.00 | 0.00 | 77 | 1002.5 | |
| 20260507020006 | 60 | 106 | 0.9 | 2.6 | 0.00 | 0.00 | 0.00 | 83 | 1002.5 |
| 20260507010005 | 60 | 144 | 0.9 | 2.6 | 0.00 | 0.00 | 0.00 | 81 | 1002.9 |
| 20260507000005 | 60 | 158 | 1.7 | 3.5 | 0.00 | 0.00 | 0.00 | 80 | 1003.0 |
| 20260506230005 | 61 | 130 | 0.0 | 1.7 | 0.00 | 0.00 | 0.00 | 82 | 1003.4 |
| 20260506220005 | 62 | 213 | 0.0 | 1.7 | 0.00 | 0.00 | 0.00 | 78 | 1003.2 |
| 20260506210006 | 63 | 121 | 0.0 | 2.6 | 0.00 | 0.00 | 0.00 | 73 | 1002.7 |
| 20260506200005 | 65 | 225 | 0.9 | 2.6 | 0.00 | 0.00 | 0.00 | 56 | 1001.9 |
| 20260506190006 | 69 | 258 | 1.7 | 3.5 | 0.00 | 0.00 | 0.00 | 54 | 1001.3 |
| 20260506180006 | 72 | 260 | 1.7 | 5.2 | 0.00 | 0.00 | 0.00 | 49 | 1001.1 |
| 20260506170005 | 72 | 266 | 1.7 | 6.1 | 0.00 | 0.00 | 0.00 | 45 | 1001.5 |
| 20260506160006 | 72 | 251 | 2.6 | 8.7 | 0.00 | 0.00 | 0.00 | 47 | 1001.9 |